When you browse on this site, cookies collect data to enhance your experience and personalize the content and advertising you see.
Visit our Privacy Policy to learn more. By continuing to use the site, you agree to this use of cookies and data.
  • In Slovakia
  • List of Countries
  • For 7 days
  • Water Temperature
  • Satellite Maps
  • Weather Map
  • Weather Widgets
  • user-avatar
    Login

    Hourly Weather Pankratovichi

    Today, 26 June, Wednesday

    Time Temperature Precipitation Wind Pressure Humidity
    00:00 +18°C° 0 mm 1 mps 754 mmHg 84%
    01:00 +18°C° 0 mm 1 mps 754 mmHg 86%
    02:00 +18°C° 0 mm 1 mps 754 mmHg 87%
    03:00 +18°C° 0 mm 1 mps 753 mmHg 88%
    04:00 +17°C° 0 mm 2 mps 753 mmHg 89%
    05:00 +17°C° 0 mm 2 mps 753 mmHg 89%
    06:00 +19°C° 0 mm 2 mps 753 mmHg 86%
    07:00 +20°C° 0 mm 2 mps 752 mmHg 82%
    08:00 +23°C° 0 mm 2 mps 752 mmHg 79%
    09:00 +24°C° 0 mm 2 mps 752 mmHg 75%
    10:00 +25°C° 0 mm 3 mps 752 mmHg 72%
    11:00 +27°C° 0 mm 3 mps 751 mmHg 68%
    12:00 +27°C° 0 mm 3 mps 751 mmHg 66%
    13:00 +28°C° 0 mm 4 mps 750 mmHg 65%
    14:00 +28°C° 0 mm 4 mps 750 mmHg 63%
    15:00 +28°C° 0 mm 4 mps 749 mmHg 67%
    16:00 +28°C° 0 mm 4 mps 748 mmHg 70%
    17:00 +27°C° 0 mm 4 mps 747 mmHg 74%
    18:00 +26°C° 0.3 mm 4 mps 747 mmHg 78%
    19:00 +25°C° 0.3 mm 4 mps 747 mmHg 83%
    20:00 +23°C° 0.3 mm 4 mps 746 mmHg 87%
    21:00 +23°C° 1.1 mm 4 mps 746 mmHg 89%
    22:00 +22°C° 1.1 mm 4 mps 745 mmHg 91%
    23:00 +22°C° 1.1 mm 4 mps 744 mmHg 93%

    Tomorrow, 27 June, Thursday

    Time Temperature Precipitation Wind Pressure Humidity
    00:00 +22°C° 0.3 mm 4 mps 744 mmHg 93%
    01:00 +22°C° 0.3 mm 5 mps 743 mmHg 94%
    02:00 +21°C° 0.3 mm 5 mps 742 mmHg 94%
    03:00 +21°C° 0.3 mm 5 mps 741 mmHg 95%
    04:00 +21°C° 0.3 mm 5 mps 741 mmHg 96%
    05:00 +21°C° 0.3 mm 5 mps 740 mmHg 96%
    06:00 +22°C° 0 mm 5 mps 740 mmHg 93%
    07:00 +23°C° 0 mm 6 mps 739 mmHg 91%
    08:00 +24°C° 0 mm 6 mps 739 mmHg 88%
    09:00 +23°C° 0.2 mm 7 mps 739 mmHg 88%
    10:00 +22°C° 0.2 mm 7 mps 738 mmHg 88%
    11:00 +20°C° 0.2 mm 7 mps 738 mmHg 88%
    12:00 +21°C° 0.4 mm 7 mps 738 mmHg 85%
    13:00 +21°C° 0.4 mm 8 mps 738 mmHg 83%
    14:00 +21°C° 0.4 mm 9 mps 738 mmHg 81%
    15:00 +19°C° 0.3 mm 9 mps 738 mmHg 80%
    16:00 +19°C° 0.3 mm 9 mps 739 mmHg 80%
    17:00 +18°C° 0.3 mm 9 mps 739 mmHg 79%
    18:00 +17°C° 0 mm 7 mps 739 mmHg 80%
    19:00 +16°C° 0 mm 6 mps 739 mmHg 81%
    20:00 +15°C° 0 mm 4 mps 739 mmHg 82%
    21:00 +15°C° 0 mm 5 mps 739 mmHg 78%
    22:00 +14°C° 0 mm 6 mps 740 mmHg 75%
    23:00 +14°C° 0 mm 6 mps 740 mmHg 71%

    Day after tomorrow, 28 June, Friday

    Time Temperature Precipitation Wind Pressure Humidity
    00:00 +13°C° 0 mm 6 mps 740 mmHg 73%
    01:00 +11°C° 0 mm 7 mps 740 mmHg 74%
    02:00 +10°C° 0 mm 7 mps 740 mmHg 75%
    03:00 +10°C° 0 mm 7 mps 740 mmHg 77%
    04:00 +10°C° 0 mm 7 mps 740 mmHg 79%
    05:00 +9°C° 0 mm 7 mps 740 mmHg 81%
    06:00 +10°C° 0 mm 8 mps 740 mmHg 79%
    07:00 +11°C° 0 mm 8 mps 740 mmHg 78%
    08:00 +12°C° 0 mm 8 mps 740 mmHg 77%
    09:00 +13°C° 0.1 mm 9 mps 740 mmHg 74%
    10:00 +15°C° 0.1 mm 9 mps 740 mmHg 71%
    11:00 +17°C° 0.1 mm 9 mps 740 mmHg 69%
    12:00 +17°C° 0.1 mm 9 mps 740 mmHg 67%
    13:00 +17°C° 0.1 mm 9 mps 740 mmHg 66%
    14:00 +17°C° 0.1 mm 9 mps 741 mmHg 65%
    15:00 +17°C° 0.1 mm 8 mps 741 mmHg 65%
    16:00 +17°C° 0.1 mm 8 mps 741 mmHg 65%
    17:00 +17°C° 0.1 mm 7 mps 741 mmHg 65%
    18:00 +15°C° 0 mm 7 mps 741 mmHg 67%
    19:00 +14°C° 0 mm 6 mps 741 mmHg 69%
    20:00 +13°C° 0 mm 6 mps 741 mmHg 71%
    21:00 +13°C° 0 mm 6 mps 742 mmHg 68%
    22:00 +11°C° 0 mm 6 mps 742 mmHg 65%
    23:00 +11°C° 0 mm 6 mps 743 mmHg 62%

    29 June, Saturday

    Time Temperature Precipitation Wind Pressure Humidity
    00:00 +10°C° 0 mm 6 mps 743 mmHg 65%
    01:00 +9°C° 0 mm 5 mps 743 mmHg 68%
    02:00 +9°C° 0 mm 5 mps 743 mmHg 71%
    03:00 +8°C° 0 mm 5 mps 743 mmHg 74%
    04:00 +8°C° 0 mm 5 mps 743 mmHg 78%
    05:00 +7°C° 0 mm 5 mps 744 mmHg 81%
    06:00 +8°C° 0 mm 6 mps 744 mmHg 79%
    07:00 +10°C° 0 mm 6 mps 744 mmHg 77%
    08:00 +11°C° 0 mm 6 mps 744 mmHg 74%
    09:00 +13°C° 0 mm 6 mps 744 mmHg 70%
    10:00 +14°C° 0 mm 7 mps 744 mmHg 66%
    11:00 +16°C° 0 mm 7 mps 744 mmHg 62%
    12:00 +16°C° 0 mm 7 mps 744 mmHg 60%
    13:00 +17°C° 0 mm 7 mps 744 mmHg 58%
    14:00 +18°C° 0 mm 7 mps 744 mmHg 57%
    15:00 +19°C° 0 mm 6 mps 744 mmHg 60%
    16:00 +19°C° 0 mm 6 mps 744 mmHg 63%
    17:00 +19°C° 0 mm 5 mps 744 mmHg 67%
    18:00 +17°C° 0.1 mm 5 mps 744 mmHg 73%
    19:00 +17°C° 0.1 mm 4 mps 744 mmHg 79%
    20:00 +15°C° 0.1 mm 4 mps 744 mmHg 85%
    21:00 +14°C° 0 mm 4 mps 744 mmHg 86%
    22:00 +14°C° 0 mm 4 mps 744 mmHg 87%
    23:00 +14°C° 0 mm 4 mps 745 mmHg 88%

    30 June, Sunday

    Time Temperature Precipitation Wind Pressure Humidity
    00:00 +13°C° 0 mm 4 mps 745 mmHg 90%
    01:00 +12°C° 0 mm 3 mps 745 mmHg 92%
    02:00 +12°C° 0 mm 3 mps 745 mmHg 94%
    03:00 +12°C° 0 mm 3 mps 745 mmHg 92%
    04:00 +12°C° 0 mm 3 mps 745 mmHg 91%
    05:00 +12°C° 0 mm 3 mps 745 mmHg 90%
    06:00 +14°C° 0 mm 3 mps 745 mmHg 86%
    07:00 +16°C° 0 mm 3 mps 745 mmHg 82%
    08:00 +18°C° 0 mm 2 mps 745 mmHg 78%
    09:00 +19°C° 0 mm 3 mps 745 mmHg 73%
    10:00 +20°C° 0 mm 3 mps 746 mmHg 69%
    11:00 +22°C° 0 mm 3 mps 746 mmHg 64%
    12:00 +24°C° 0 mm 3 mps 745 mmHg 63%
    13:00 +24°C° 0 mm 3 mps 745 mmHg 63%
    14:00 +25°C° 0 mm 3 mps 745 mmHg 62%
    15:00 +26°C° 0 mm 3 mps 745 mmHg 64%
    16:00 +26°C° 0 mm 3 mps 745 mmHg 65%
    17:00 +26°C° 0 mm 3 mps 744 mmHg 67%
    18:00 +25°C° 0 mm 3 mps 744 mmHg 72%
    19:00 +24°C° 0 mm 3 mps 744 mmHg 77%
    20:00 +21°C° 0 mm 3 mps 744 mmHg 82%
    21:00 +20°C° 0 mm 3 mps 744 mmHg 85%
    22:00 +19°C° 0 mm 3 mps 744 mmHg 87%
    23:00 +18°C° 0 mm 3 mps 744 mmHg 89%

    1 July, Monday

    Time Temperature Precipitation Wind Pressure Humidity
    00:00 +18°C° 0 mm 3 mps 744 mmHg 89%
    01:00 +17°C° 0 mm 3 mps 743 mmHg 89%
    02:00 +17°C° 0 mm 3 mps 743 mmHg 90%
    03:00 +17°C° 0 mm 4 mps 743 mmHg 89%
    04:00 +17°C° 0 mm 4 mps 743 mmHg 89%
    05:00 +17°C° 0 mm 4 mps 742 mmHg 88%
    06:00 +18°C° 0 mm 4 mps 742 mmHg 86%
    07:00 +20°C° 0 mm 4 mps 742 mmHg 84%
    08:00 +21°C° 0 mm 5 mps 742 mmHg 81%
    09:00 +23°C° 0 mm 5 mps 742 mmHg 79%
    10:00 +25°C° 0 mm 5 mps 742 mmHg 76%
    11:00 +26°C° 0 mm 5 mps 742 mmHg 74%
    12:00 +27°C° 0.4 mm 5 mps 741 mmHg 71%
    13:00 +27°C° 0.4 mm 6 mps 741 mmHg 68%
    14:00 +27°C° 0.4 mm 6 mps 741 mmHg 65%
    15:00 +27°C° 0 mm 6 mps 741 mmHg 65%
    16:00 +26°C° 0 mm 5 mps 741 mmHg 66%
    17:00 +25°C° 0 mm 5 mps 741 mmHg 66%
    18:00 +23°C° 0 mm 4 mps 741 mmHg 69%
    19:00 +21°C° 0 mm 3 mps 741 mmHg 73%
    20:00 +20°C° 0 mm 2 mps 741 mmHg 76%
    21:00 +19°C° 0 mm 2 mps 741 mmHg 79%
    22:00 +18°C° 0 mm 2 mps 741 mmHg 81%
    23:00 +16°C° 0 mm 1 mps 741 mmHg 84%
    Show more